GW7173 Weather Reports


time (UTC)temp
C
wind
direction
speed
KPH
gust
KPH
rain 1hr
cm
rain 24hr
cm
rain mn
cm
humidity
%
barometer
mb
20260903043756 22 305 0.0 0.0 0.00 0.00 0.00 95 1017.0
20260903043256 22 305 0.0 0.0 0.00 0.00 0.00 95 1016.8
20260903042755 22 305 0.0 0.0 0.00 0.00 0.00 95 1016.9
20260903042251 22 305 0.0 0.0 0.00 0.00 0.00 94 1017.0
20260903041747 23 305 0.0 0.0 0.00 0.00 0.00 94 1016.8
20260903041243 23 304 0.0 0.0 0.00 0.00 0.00 95 1016.9
20260903040742 23 304 0.0 0.0 0.00 0.00 0.00 95 1016.9
20260903040237 23 305 0.0 0.0 0.00 0.00 0.00 95 1017.0
20260903035733 23 305 0.0 0.0 0.00 0.00 0.00 95 1016.8
20260903035229 23 304 0.0 0.0 0.00 0.00 0.00 95 1016.8
20260903034729 23 305 0.0 0.0 0.00 0.00 0.00 95 1016.9
20260903034224 23 305 0.0 0.0 0.00 0.00 0.00 95 1016.9
20260903033719 23 305 0.0 0.0 0.00 0.00 0.00 95 1016.9
20260903033220 23 305 0.0 0.0 0.00 0.00 0.00 95 1016.9
20260903032714 23 305 0.0 0.0 0.00 0.00 0.00 95 1016.7
20260903032210 23 305 0.0 0.0 0.00 0.00 0.00 95 1016.8
20260903031706 23 305 0.0 0.0 0.00 0.00 0.00 95 1017.0
20260903031205 23 305 0.0 0.0 0.00 0.00 0.00 94 1017.1
20260903030701 23 305 0.0 0.0 0.00 0.00 0.00 94 1017.1
20260903030157 23 305 0.0 0.0 0.00 0.00 0.00 94 1017.3
20260903025652 23 304 0.0 0.0 0.00 0.00 0.00 94 1017.1
20260903025148 23 305 0.0 0.0 0.00 0.00 0.00 94 1017.0
20260903024642 23 305 0.0 0.0 0.00 0.00 0.00 93 1016.8
20260903024141 23 305 0.0 0.0 0.00 0.00 0.00 93 1016.9
20260903023637 23 305 0.0 0.0 0.00 0.00 0.00 92 1017.3
20260903023137 23 305 0.0 0.0 0.00 0.00 0.00 92 1017.4
20260903022632 23 305 0.0 0.0 0.00 0.00 0.00 92 1017.1
20260903022131 24 305 0.0 0.0 0.00 0.00 0.00 91 1017.0
20260903021626 24 305 0.0 0.0 0.00 0.00 0.00 91 1017.1
20260903021125 24 305 0.0 0.0 0.00 0.00 0.00 90 1016.9
20260903020622 24 305 0.0 0.0 0.00 0.00 0.00 90 1017.0
20260903020121 24 305 0.0 0.0 0.00 0.00 0.00 89 1017.3
20260903015617 24 305 0.0 0.0 0.00 0.00 0.00 89 1017.3
20260903015113 25 305 0.0 0.0 0.00 0.00 0.00 90 1017.0
20260903014612 25 305 0.0 0.0 0.00 0.00 0.00 90 1017.1
20260903014113 25 305 0.0 0.0 0.00 0.00 0.00 88 1017.3
20260903013613 25 305 0.0 0.0 0.00 0.00 0.00 87 1017.3
20260903013107 25 305 0.0 0.0 0.00 0.00 0.00 86 1017.0
20260903012606 25 305 0.0 0.0 0.00 0.00 0.00 85 1017.3
20260903012106 25 305 0.0 0.0 0.00 0.00 0.00 85 1017.1
20260903011605 25 305 0.0 0.0 0.00 0.00 0.00 85 1016.8
20260903011105 25 305 0.0 0.0 0.00 0.00 0.00 84 1017.1
20260903010601 25 305 0.0 0.0 0.00 0.00 0.00 84 1016.9
20260903010059 26 305 0.0 0.0 0.00 0.00 0.00 84 1016.9
20260903005554 26 304 0.0 0.0 0.00 0.00 0.00 84 1016.7
20260903005050 26 303 0.0 0.0 0.00 0.00 0.00 83 1016.8
20260903004550 26 303 0.0 0.0 0.00 0.00 0.00 81 1016.8
20260903004045 27 304 0.0 0.0 0.00 0.00 0.00 78 1016.7
20260903003541 27 304 0.0 0.0 0.00 0.00 0.00 77 1016.7
20260903003036 27 304 0.0 0.0 0.00 0.00 0.00 76 1016.5
20260903002531 27 304 0.0 0.0 0.00 0.00 0.00 74 1016.7
20260903002031 28 304 0.0 0.0 0.00 0.00 0.00 73 1016.6
20260903001526 28 303 0.0 0.0 0.00 0.00 0.00 71 1016.7
20260903001025 29 297 0.0 0.0 0.00 0.00 0.00 68 1016.6
20260903000521 30 297 0.0 0.0 0.00 0.00 0.00 65 1016.6
20260903000020 31 296 0.0 0.0 0.00 0.00 0.00 61 1016.7
20260902235514 31 296 0.0 0.0 0.00 0.00 0.00 62 1016.8
20260902235009 32 295 0.0 0.0 0.00 0.00 0.00 58 1016.6
20260902234503 33 295 0.0 0.0 0.00 0.00 0.00 55 1016.7
20260902234002 34 295 0.0 0.0 0.00 0.00 0.00 57 1016.6
20260902233502 35 295 0.0 0.0 0.00 0.00 0.00 55 1016.6
20260902232956 36 296 0.0 0.0 0.00 0.00 0.00 51 1016.7
20260902232450 35 295 0.0 0.0 0.00 0.00 0.00 48 1016.7
20260902231950 35 295 0.0 0.0 0.00 0.00 0.00 50 1017.0
20260902231445 35 295 0.0 0.0 0.00 0.00 0.00 51 1016.7
20260902230940 35 297 0.0 0.0 0.00 0.00 0.00 50 1016.7
20260902230439 35 297 1.6 1.6 0.00 0.00 0.00 48 1016.8
20260902225933 35 323 0.0 1.6 0.00 0.00 0.00 46 1016.7
20260902225428 35 329 0.0 3.2 0.00 0.00 0.00 48 1016.9
20260902224927 35 327 3.2 4.8 0.00 0.00 0.00 45 1016.6
20260902224427 35 320 1.6 3.2 0.00 0.00 0.00 43 1016.7
20260902223924 35 306 0.0 1.6 0.00 0.00 0.00 44 1016.8
20260902223425 35 296 1.6 1.6 0.00 0.00 0.00 48 1016.8
20260902222924 35 4 3.2 4.8 0.00 0.00 0.00 44 1016.8
20260902222423 35 297 1.6 4.8 0.00 0.00 0.00 45 1017.0
20260902221922 35 307 3.2 4.8 0.00 0.00 0.00 45 1016.8
20260902221421 35 322 3.2 3.2 0.00 0.00 0.00 45 1016.8
20260902220917 35 326 4.8 6.4 0.00 0.00 0.00 45 1017.0
20260902220417 35 14 6.4 6.4 0.00 0.00 0.00 43 1017.1
20260902215912 35 288 3.2 6.4 0.00 0.00 0.00 43 1017.0
20260902215408 35 279 1.6 4.8 0.00 0.00 0.00 42 1017.0
20260902214904 35 315 3.2 4.8 0.00 0.00 0.00 45 1016.9
20260902214403 35 294 3.2 4.8 0.00 0.00 0.00 43 1017.0
20260902213857 35 315 6.4 9.7 0.00 0.00 0.00 45 1017.3
20260902213354 35 321 3.2 3.2 0.00 0.00 0.00 45 1017.4
20260902212852 35 306 4.8 4.8 0.00 0.00 0.00 43 1017.0
20260902212348 35 309 3.2 4.8 0.00 0.00 0.00 44 1017.3
20260902211845 35 295 1.6 1.6 0.00 0.00 0.00 45 1017.1
20260902211340 35 298 3.2 6.4 0.00 0.00 0.00 45 1017.4
20260902210835 35 297 6.4 4.8 0.00 0.00 0.00 45 1017.5
20260902210334 35 328 6.4 6.4 0.00 0.00 0.00 46 1017.4
20260902205833 35 318 6.4 6.4 0.00 0.00 0.00 46 1017.3
20260902205328 35 276 6.4 11.3 0.00 0.00 0.00 43 1017.3
20260902204823 35 288 3.2 4.8 0.00 0.00 0.00 43 1017.4
20260902204318 35 7 4.8 9.7 0.00 0.00 0.00 44 1017.1
20260902203814 35 1 9.7 12.9 0.00 0.00 0.00 44 1017.5
20260902203309 35 347 3.2 9.7 0.00 0.00 0.00 45 1017.5
20260902202808 35 332 6.4 11.3 0.00 0.00 0.00 43 1017.6
20260902202306 35 249 4.8 6.4 0.00 0.00 0.00 46 1017.5
20260902201801 35 302 3.2 3.2 0.00 0.00 0.00 45 1017.6
20260902201301 35 327 6.4 9.7 0.00 0.00 0.00 45 1017.6
20260902200756 35 342 6.4 9.7 0.00 0.00 0.00 45 1017.6
20260902200251 35 339 4.8 4.8 0.00 0.00 0.00 47 1017.7
20260902195746 35 257 3.2 6.4 0.00 0.00 0.00 46 1017.6
20260902195246 35 348 3.2 4.8 0.00 0.00 0.00 45 1017.9
20260902194746 35 332 6.4 11.3 0.00 0.00 0.00 49 1017.8
20260902194241 35 276 6.4 6.4 0.00 0.00 0.00 46 1018.0
20260902193737 35 277 4.8 9.7 0.00 0.00 0.00 44 1017.8
20260902193232 35 292 4.8 6.4 0.00 0.00 0.00 45 1018.1
20260902192730 35 273 6.4 9.7 0.00 0.00 0.00 45 1018.2
20260902192230 35 284 4.8 11.3 0.00 0.00 0.00 49 1018.0
20260902191724 35 289 6.4 6.4 0.00 0.00 0.00 49 1018.1
20260902191219 35 352 6.4 6.4 0.00 0.00 0.00 50 1018.5
20260902190715 34 323 6.4 6.4 0.00 0.00 0.00 47 1018.4
20260902190214 35 230 6.4 11.3 0.00 0.00 0.00 48 1018.2
20260902185710 34 291 6.4 11.3 0.00 0.00 0.00 49 1018.2
20260902185208 35 311 6.4 9.7 0.00 0.00 0.00 52 1018.3
20260902184707 35 311 4.8 4.8 0.00 0.00 0.00 48 1018.3
20260902184202 35 330 4.8 9.7 0.00 0.00 0.00 50 1018.5
20260902183658 35 324 6.4 9.7 0.00 0.00 0.00 48 1018.4
20260902183154 35 308 4.8 9.7 0.00 0.00 0.00 49 1018.3
20260902182650 35 305 9.7 11.3 0.00 0.00 0.00 50 1018.4
20260902182146 34 301 3.2 6.4 0.00 0.00 0.00 48 1018.4
20260902181642 34 297 3.2 9.7 0.00 0.00 0.00 53 1018.4
20260902181142 34 325 4.8 11.3 0.00 0.00 0.00 51 1018.8
20260902180641 34 321 4.8 6.4 0.00 0.00 0.00 49 1018.6
20260902180138 34 250 1.6 4.8 0.00 0.00 0.00 56 1018.7
20260902175637 33 324 9.7 11.3 0.00 0.00 0.00 51 1018.6
20260902175133 33 323 12.9 16.1 0.00 0.00 0.00 49 1018.6
20260902174629 34 242 4.8 11.3 0.00 0.00 0.00 53 1019.0
20260902174125 35 189 8.0 9.7 0.00 0.00 0.00 48 1018.7
20260902173620 34 300 6.4 6.4 0.00 0.00 0.00 50 1018.9
20260902173115 35 234 3.2 9.7 0.00 0.00 0.00 50 1018.9
20260902172609 34 278 1.6 1.6 0.00 0.00 0.00 51 1018.9
20260902172109 33 313 4.8 6.4 0.00 0.00 0.00 52 1019.3
20260902171605 34 331 9.7 12.9 0.00 0.00 0.00 52 1019.1
20260902171101 33 284 9.7 9.7 0.00 0.00 0.00 52 1019.1
20260902170555 33 14 3.2 4.8 0.00 0.00 0.00 54 1019.5
20260902170051 33 313 8.0 9.7 0.00 0.00 0.00 52 1019.3
20260902165551 33 297 4.8 9.7 0.00 0.00 0.00 52 1019.3
20260902165045 33 298 6.4 11.3 0.00 0.00 0.00 57 1019.6
20260902164541 33 337 6.4 9.7 0.00 0.00 0.00 57 1019.4
20260902164039 33 326 6.4 11.3 0.00 0.00 0.00 55 1019.5
20260902163536 33 325 8.0 9.7 0.00 0.00 0.00 55 1019.8
20260902163034 33 332 9.7 12.9 0.00 0.00 0.00 57 1019.9
20260902162533 33 13 6.4 9.7 0.00 0.00 0.00 54 1019.7
20260902162029 33 338 1.6 4.8 0.00 0.00 0.00 56 1019.6
20260902161523 33 293 3.2 4.8 0.00 0.00 0.00 56 1019.7
20260902161019 33 265 4.8 6.4 0.00 0.00 0.00 59 1019.6
20260902160515 33 244 3.2 4.8 0.00 0.00 0.00 60 1019.7
20260902160015 33 313 4.8 4.8 0.00 0.00 0.00 60 1019.7
20260902155508 33 324 6.4 9.7 0.00 0.00 0.00 57 1019.9
20260902155007 32 300 4.8 9.7 0.00 0.00 0.00 55 1019.8
20260902154503 32 324 4.8 4.8 0.00 0.00 0.00 58 1020.0
20260902153957 32 63 3.2 11.3 0.00 0.00 0.00 56 1019.7
20260902153455 33 7 6.4 11.3 0.00 0.00 0.00 59 1019.7
20260902152951 32 348 6.4 6.4 0.00 0.00 0.00 57 1019.8
20260902152448 32 351 4.8 6.4 0.00 0.00 0.00 59 1020.1
20260902151943 32 302 3.2 4.8 0.00 0.00 0.00 60 1019.8
20260902151439 31 39 4.8 4.8 0.00 0.00 0.00 61 1019.8
20260902150938 32 296 4.8 6.4 0.00 0.00 0.00 61 1019.9
20260902150435 32 2 1.6 6.4 0.00 0.00 0.00 63 1019.8
20260902145934 32 359 3.2 6.4 0.00 0.00 0.00 61 1019.8
20260902145430 32 41 1.6 3.2 0.00 0.00 0.00 60 1019.7
20260902144924 31 343 1.6 4.8 0.00 0.00 0.00 61 1019.8
20260902144420 31 268 1.6 3.2 0.00 0.00 0.00 65 1019.6
20260902143920 31 320 1.6 1.6 0.00 0.00 0.00 65 1019.7
20260902143415 31 238 3.2 4.8 0.00 0.00 0.00 64 1019.8
20260902142910 31 323 4.8 4.8 0.00 0.00 0.00 62 1019.8
20260902142407 31 187 1.6 1.6 0.00 0.00 0.00 67 1019.5
20260902141902 30 245 0.0 1.6 0.00 0.00 0.00 69 1019.9
20260902141357 30 334 0.0 1.6 0.00 0.00 0.00 70 1019.8
20260902140856 29 310 1.6 3.2 0.00 0.00 0.00 69 1019.8
20260902140352 29 277 4.8 6.4 0.00 0.00 0.00 68 1019.6
20260902135852 28 233 1.6 1.6 0.00 0.00 0.00 72 1019.7
20260902135348 28 286 4.8 4.8 0.00 0.00 0.00 72 1019.6
20260902134846 28 291 3.2 4.8 0.00 0.00 0.00 74 1019.8
20260902134342 28 318 4.8 6.4 0.00 0.00 0.00 75 1019.8
20260902133837 27 303 1.6 1.6 0.00 0.00 0.00 77 1019.6
20260902133337 27 343 3.2 3.2 0.00 0.00 0.00 78 1019.9
20260902132832 27 275 3.2 6.4 0.00 0.00 0.00 78 1019.7
20260902132327 27 300 3.2 4.8 0.00 0.00 0.00 78 1019.6
20260902131823 27 293 3.2 6.4 0.00 0.00 0.00 78 1019.5
20260902131320 27 306 3.2 4.8 0.00 0.00 0.00 77 1019.6
20260902130819 26 258 1.6 4.8 0.00 0.00 0.00 78 1019.6
20260902130315 26 299 1.6 4.8 0.00 0.00 0.00 77 1019.5
20260902125810 26 291 4.8 6.4 0.00 0.00 0.00 77 1019.6
20260902125306 26 288 1.6 4.8 0.00 0.00 0.00 79 1019.6
20260902124802 26 298 3.2 3.2 0.00 0.00 0.00 78 1019.6
20260902124257 26 310 0.0 3.2 0.00 0.00 0.00 82 1019.5
20260902123758 25 258 1.6 1.6 0.00 0.00 0.00 83 1019.6
20260902123254 25 248 0.0 1.6 0.00 0.00 0.00 84 1019.4
20260902122752 25 223 0.0 1.6 0.00 0.00 0.00 85 1019.5
20260902122249 25 256 1.6 3.2 0.00 0.00 0.00 85 1019.5
20260902121748 24 246 0.0 3.2 0.00 0.00 0.00 86 1019.3
20260902121244 24 248 0.0 1.6 0.00 0.00 0.00 87 1019.1
20260902120739 23 253 3.2 3.2 0.00 0.00 0.00 87 1019.3
20260902120236 23 292 1.6 3.2 0.00 0.00 0.00 88 1019.1
20260902115736 23 265 1.6 1.6 0.00 0.00 0.00 89 1019.2
20260902115232 22 278 1.6 3.2 0.00 0.00 0.00 91 1019.0
20260902114727 22 256 1.6 1.6 0.00 0.00 0.00 93 1019.0
20260902114224 22 247 1.6 1.6 0.00 0.00 0.00 94 1019.2
20260902113723 22 244 0.0 0.0 0.00 0.00 0.00 97 1019.0
20260902113219 21 247 0.0 1.6 0.00 0.00 0.00 97 1019.0
20260902112718 21 251 0.0 0.0 0.00 0.00 0.00 97 1019.0
20260902112216 21 251 0.0 0.0 0.00 0.00 0.00 97 1018.8
20260902111711 21 252 0.0 0.0 0.00 0.00 0.00 97 1018.7
20260902111207 21 250 0.0 0.0 0.00 0.00 0.00 97 1018.8
20260902110702 21 243 0.0 0.0 0.00 0.00 0.00 97 1018.9
20260902110158 21 243 0.0 0.0 0.00 0.00 0.00 97 1018.7
20260902105658 21 243 0.0 0.0 0.00 0.00 0.00 97 1018.6
20260902105153 21 243 0.0 0.0 0.00 0.00 0.00 97 1018.7
20260902104648 21 242 0.0 0.0 0.00 0.00 0.00 97 1018.7
20260902104144 21 242 0.0 0.0 0.00 0.00 0.00 97 1018.7
20260902103643 21 242 0.0 0.0 0.00 0.00 0.00 97 1018.5
20260902103138 21 242 0.0 0.0 0.00 0.00 0.00 97 1018.5
20260902102634 21 242 0.0 0.0 0.00 0.00 0.00 97 1018.5
20260902102132 21 242 0.0 0.0 0.00 0.00 0.00 97 1018.6
20260902101627 21 243 0.0 0.0 0.00 0.00 0.00 97 1018.4
20260902101126 21 243 0.0 0.0 0.00 0.00 0.00 97 1018.4
20260902100621 21 242 0.0 0.0 0.00 0.00 0.00 97 1018.5
20260902100116 21 242 0.0 0.0 0.00 0.00 0.00 96 1018.5
20260902095615 21 243 0.0 0.0 0.00 0.00 0.00 97 1018.3
20260902095114 21 243 0.0 0.0 0.00 0.00 0.00 96 1018.3
20260902094609 21 243 0.0 0.0 0.00 0.00 0.00 96 1018.1
20260902094106 21 243 0.0 0.0 0.00 0.00 0.00 96 1018.3
20260902093606 21 243 0.0 0.0 0.00 0.00 0.00 96 1018.2
20260902093100 21 243 0.0 0.0 0.00 0.00 0.00 96 1018.2
20260902092554 21 243 0.0 0.0 0.00 0.00 0.00 96 1018.2
20260902092050 21 242 0.0 0.0 0.00 0.00 0.00 96 1018.2
20260902091545 21 242 0.0 0.0 0.00 0.00 0.00 95 1018.0
20260902091041 21 243 0.0 0.0 0.00 0.00 0.00 95 1018.1
20260902090537 21 243 0.0 0.0 0.00 0.00 0.00 95 1018.2
20260902090036 21 243 0.0 0.0 0.00 0.00 0.00 95 1018.1
20260902085530 21 243 0.0 0.0 0.00 0.00 0.00 95 1018.2
20260902085026 22 243 0.0 0.0 0.00 0.00 0.00 95 1018.1
20260902084522 22 243 0.0 0.0 0.00 0.00 0.00 95 1018.1
20260902084017 22 243 0.0 0.0 0.00 0.00 0.00 95 1018.1
20260902083512 22 243 0.0 0.0 0.00 0.00 0.00 95 1018.2
20260902083007 22 243 0.0 0.0 0.00 0.00 0.00 96 1018.1
20260902082502 22 246 0.0 0.0 0.00 0.00 0.00 96 1018.2
20260902081959 22 246 0.0 0.0 0.00 0.00 0.00 96 1018.1
20260902081456 21 246 0.0 0.0 0.00 0.00 0.00 95 1018.0
20260902080955 21 245 0.0 0.0 0.00 0.00 0.00 95 1018.1
20260902080451 21 245 0.0 0.0 0.00 0.00 0.00 95 1018.1
20260902075950 21 245 0.0 0.0 0.00 0.00 0.00 95 1018.1
20260902075447 21 246 0.0 0.0 0.00 0.00 0.00 95 1017.9
20260902074942 21 246 0.0 0.0 0.00 0.00 0.00 95 1017.8
20260902074437 21 245 0.0 0.0 0.00 0.00 0.00 95 1017.9
20260902073932 22 245 0.0 0.0 0.00 0.00 0.00 95 1017.9
20260902073429 22 245 0.0 0.0 0.00 0.00 0.00 95 1017.8
20260902072924 22 245 0.0 0.0 0.00 0.00 0.00 95 1017.8
20260902072420 22 245 0.0 0.0 0.00 0.00 0.00 95 1017.8
20260902071916 22 245 0.0 0.0 0.00 0.00 0.00 95 1017.8
20260902071416 22 245 0.0 0.0 0.00 0.00 0.00 95 1017.9
20260902070912 22 247 0.0 0.0 0.00 0.00 0.00 95 1017.8
20260902070408 22 247 0.0 0.0 0.00 0.00 0.00 96 1017.9
20260902065906 22 247 0.0 0.0 0.00 0.00 0.00 96 1017.8
20260902065401 22 247 0.0 0.0 0.00 0.00 0.00 96 1018.0
20260902064857 22 248 0.0 0.0 0.00 0.00 0.00 96 1018.0
20260902064353 22 248 0.0 0.0 0.00 0.00 0.00 97 1017.7
20260902063848 22 248 0.0 0.0 0.00 0.00 0.00 97 1017.8
20260902063348 21 248 0.0 0.0 0.00 0.00 0.00 97 1017.9
20260902062848 21 248 0.0 0.0 0.00 0.00 0.00 97 1018.1
20260902062348 21 248 0.0 0.0 0.00 0.00 0.00 97 1018.2
20260902061848 21 248 0.0 0.0 0.00 0.00 0.00 97 1018.2
20260902061343 21 251 0.0 0.0 0.00 0.00 0.00 97 1018.2
20260902060839 21 251 0.0 0.0 0.00 0.00 0.00 97 1018.2
20260902060334 21 251 0.0 0.0 0.00 0.00 0.00 97 1018.2
20260902055830 21 251 0.0 0.0 0.00 0.00 0.00 97 1018.2
20260902055326 21 251 0.0 0.0 0.00 0.00 0.00 97 1017.9
20260902054821 21 251 0.0 0.0 0.00 0.00 0.00 97 1018.1
20260902054317 21 251 0.0 0.0 0.00 0.00 0.00 97 1018.1
20260902053812 21 251 0.0 0.0 0.00 0.00 0.00 96 1018.0
20260902053307 21 251 0.0 0.0 0.00 0.00 0.00 96 1017.9
20260902052806 21 251 0.0 0.0 0.00 0.00 0.00 96 1018.0
20260902052306 21 251 0.0 0.0 0.00 0.00 0.00 96 1018.1
20260902051756 22 251 0.0 0.0 0.00 0.00 0.00 96 1018.0
20260902051255 21 251 1.6 0.0 0.00 0.00 0.00 96 1018.0
20260902050750 22 252 0.0 0.0 0.00 0.00 0.00 96 1018.0
20260902050245 22 252 0.0 0.0 0.00 0.00 0.00 96 1018.0
20260902045745 22 252 0.0 0.0 0.00 0.00 0.00 96 1018.1
20260902045241 22 252 0.0 0.0 0.00 0.00 0.00 96 1017.9
20260902044737 22 252 0.0 0.0 0.00 0.00 0.00 96 1017.8
20260902044232 22 252 0.0 0.0 0.00 0.00 0.00 96 1017.9